This demonstration page uses our WeatherBlox Daily Observations layout. Learn more.

Left ArrowRight Arrow

Hourly Observations for March 21, 2021

Temp ( °F °C ) Dew Point ( °F °C ) Humidity (%) Winds ( mph kmh ) Pressure ( in mb ) Visibility ( mi km ) Precip ( " mm )
12:54 am 00:54 Clear 49 9.4 31 -0.6 50 50 S 20 31 30.03 1017 10 16 0.00 0.00
1:54 am 01:54 Clear 48 8.9 31 -0.6 52 52 S 16 26 30.01 1016 10 16 0.00 0.00
2:54 am 02:54 Clear 48 8.9 30 -1.1 50 50 S 18 30 29.98 1015 10 16 0.00 0.00
3:54 am 03:54 Clear 49 9.4 30 -1.1 48 48 S 22 35 29.94 1014 10 16 0.00 0.00
4:54 am 04:54 Clear 48 8.9 31 -0.6 52 52 S 23 37 29.92 1013 10 16 0.00 0.00
5:54 am 05:54 Clear 48 8.9 32 0 54 54 S 20 31 29.91 1013 10 16 0.00 0.00
6:54 am 06:54 Clear 49 9.4 33 0.6 55 55 S 25 41 29.88 1012 10 16 0.00 0.00
7:54 am 07:54 Sunny 49 9.4 34 1.1 56 56 S 22 35 29.88 1012 9 14 0.00 0.00
8:54 am 08:54 Sunny 51 10.6 35 1.7 54 54 S 33 54 29.86 1011 8 13 0.00 0.00
9:54 am 09:54 Sunny 55 12.8 37 2.8 51 51 S 26 43 29.88 1012 10 16 0.00 0.00
10:54 am 10:54 Sunny 59 15 38 3.3 46 46 SSW 23 37 29.89 1012 10 16 0.00 0.00
11:54 am 11:54 Sunny 61 16.1 39 3.9 44 44 SSW 28 44 29.89 1012 10 16 0.00 0.00
12:54 pm 12:54 Sunny 63 17.2 39 3.9 41 41 S 28 44 29.88 1012 10 16 0.00 0.00
1:54 pm 13:54 Cloudy 63 17.2 39 3.9 41 41 SSW 20 31 29.87 1012 10 16 0.00 0.00
2:54 pm 14:54 Cloudy 63 17.2 39 3.9 41 41 SW 23 37 29.86 1011 10 16 0.00 0.00
3:54 pm 15:54 Cloudy 64 17.8 40 4.4 41 41 SSW 22 35 29.86 1011 10 16 0.00 0.00
4:54 pm 16:54 Cloudy 65 18.3 40 4.4 40 40 SSW 17 28 29.87 1011 10 16 0.00 0.00
5:54 pm 17:54 Cloudy 63 17.2 41 5 45 45 SSW 10 17 29.88 1012 10 16 0.00 0.00
6:54 pm 18:54 Cloudy 62 16.7 42 5.6 48 48 S 7 11 29.89 1012 10 16 0.00 0.00
7:54 pm 19:54 Cloudy 60 15.6 41 5 50 50 N 8 13 29.92 1013 10 16 0.00 0.00
8:54 pm 20:54 Cloudy 54 12.2 41 5 62 62 NNE 3 6 29.95 1014 10 16 0.00 0.00
9:54 pm 21:54 Mostly Cloudy 51 10.6 40 4.4 66 66 NNW 3 6 29.97 1015 10 16 0.00 0.00
10:54 pm 22:54 Mostly Cloudy 53 11.7 38 3.3 57 57 NNW 5 7 29.98 1015 10 16 0.00 0.00
11:54 pm 23:54 Clear 44 6.7 35 1.7 71 71 N 6 9 30.00 1016 10 16 0.00 0.00

Powered by AerisWeather